Weather History for KLGD - February, 2014

Change the Weather History Date:

Saturday, February 8, 2014

  Actual Average Record
Temperature  
Mean Temperature 22 °F -  
Max Temperature 26 °F 38 °F 60 °F (2015)
Min Temperature 17 °F 26 °F -8 °F (1989)
Degree Days  
Heating Degree Days 44    
Moisture  
Dew Point 13 °F    
Average Humidity 75    
Maximum Humidity 86    
Minimum Humidity 63    
Precipitation  
Precipitation 0.00 in - - ()
Sea Level Pressure  
Sea Level Pressure 29.87 in    
Wind  
Wind Speed 7 mph (NW)    
Max Wind Speed 25 mph    
Max Gust Speed 32 mph    
Visibility 4 miles    
Events      
Averages and records for this station are not official NWS values.
T = Trace of Precipitation, MM = Missing Value Source: NWS Daily Summary

Daily Weather History Graph

Daily Weather History Graph

Search for Another Location

Airport or City:

Trip Planner

Search our weather history database for the weather conditions in past years. The results will help you decide how hot, cold, wet, or windy it might be!

Date:

Astronomy

Feb. 08, 2014 Rise Set
Actual Time 7:03 AM PST 5:09 PM PST
Civil Twilight 6:32 AM PST 5:40 PM PST
Nautical Twilight 5:57 AM PST 6:15 PM PST
Astronomical Twilight 5:23 AM PST 6:49 PM PST
Moon 12:02 PM PST (2/8) 2:24 AM PST (2/8)
Length of Visible Light 11h 07m
Length of Day
10h 06m
Waxing Gibbous, 69% of the Moon is Illuminated
Feb 8
Waxing Gibbous
Feb 14
Full
Feb 22
Last Quarter
Mar 1
New
Mar 8
First Quarter

Hourly Weather History & Observations

Time (PST) Temp. Windchill Dew Point Humidity Pressure Visibility Wind Dir Wind Speed Gust Speed Precip Events Conditions
12:15 AM 26.6 °F 19.1 °F 19.4 °F 74% 29.64 in 5.0 mi NNE 6.9 mph - N/A   Overcast
12:35 AM 26.6 °F 18.2 °F 19.4 °F 74% 29.65 in 5.0 mi NNE 8.1 mph - N/A   Overcast
12:55 AM 26.6 °F 20.0 °F 19.4 °F 74% 29.66 in 3.0 mi North 5.8 mph - N/A   Overcast
1:15 AM 26.6 °F 19.1 °F 19.4 °F 74% 29.67 in 1.8 mi North 6.9 mph - N/A   Overcast
1:35 AM 26.6 °F 20.0 °F 19.4 °F 74% 29.69 in 2.5 mi North 5.8 mph - N/A   Overcast
1:55 AM 26.6 °F 20.0 °F 19.4 °F 74% 29.70 in 3.0 mi NNW 5.8 mph - N/A   Overcast
2:15 AM 26.6 °F 19.1 °F 19.4 °F 74% 29.73 in 3.0 mi NW 6.9 mph - N/A   Overcast
2:35 AM 21.2 °F 6.8 °F 14.0 °F 74% 29.73 in 2.0 mi NW 17.3 mph - N/A   Overcast
2:55 AM 19.4 °F 4.1 °F 12.2 °F 74% 29.75 in 2.0 mi NW 18.4 mph - N/A   Overcast
3:15 AM 19.4 °F 2.5 °F 10.4 °F 68% 29.76 in 2.5 mi NW 23.0 mph 29.9 mph N/A   Overcast
3:35 AM 17.6 °F -0.6 °F 8.6 °F 68% 29.77 in 9.0 mi NW 25.3 mph - N/A   Overcast
3:55 AM 17.6 °F 0.1 °F 6.8 °F 63% 29.79 in 9.0 mi NW 23.0 mph 32.2 mph N/A   Overcast
4:15 AM 17.6 °F 0.5 °F 6.8 °F 63% 29.81 in 10.0 mi NW 21.9 mph - N/A   Overcast
4:35 AM 17.6 °F 1.3 °F 6.8 °F 63% 29.82 in 10.0 mi NW 19.6 mph 24.2 mph N/A   Overcast
4:55 AM 17.6 °F 0.9 °F 6.8 °F 63% 29.85 in 7.0 mi NW 20.7 mph 26.5 mph N/A   Overcast
5:15 AM 17.6 °F 3.7 °F 6.8 °F 63% 29.86 in 10.0 mi WNW 13.8 mph 19.6 mph N/A   Overcast
5:35 AM 17.6 °F 3.2 °F 6.8 °F 63% 29.88 in 10.0 mi NW 15.0 mph 18.4 mph N/A   Overcast
5:55 AM 17.6 °F 5.0 °F 6.8 °F 63% 29.89 in 7.0 mi NW 11.5 mph - N/A   Overcast
6:15 AM 17.6 °F 5.7 °F 8.6 °F 68% 29.89 in 5.0 mi WNW 10.4 mph - N/A   Overcast
6:35 AM 17.6 °F 8.2 °F 8.6 °F 68% 29.91 in 3.0 mi WNW 6.9 mph - N/A   Overcast
6:55 AM 17.6 °F - 10.4 °F 73% 29.92 in 3.0 mi Calm Calm - N/A   Overcast
7:15 AM 17.6 °F - 10.4 °F 73% 29.93 in 1.8 mi Calm Calm - N/A   Overcast
7:35 AM 17.6 °F 12.3 °F 10.4 °F 73% 29.94 in 2.5 mi SSW 3.5 mph - N/A   Overcast
7:55 AM 17.6 °F 12.3 °F 10.4 °F 73% 29.94 in 1.2 mi South 3.5 mph - N/A   Overcast
8:15 AM 17.6 °F 12.3 °F 10.4 °F 73% 29.96 in 2.0 mi South 3.5 mph - N/A   Overcast
8:35 AM 17.6 °F 12.3 °F 10.4 °F 73% 29.96 in 1.0 mi South 3.5 mph - N/A   Overcast
8:55 AM 17.6 °F 10.7 °F 10.4 °F 73% 29.97 in 1.2 mi SSE 4.6 mph - N/A   Overcast
9:15 AM 17.6 °F 10.7 °F 10.4 °F 73% 29.97 in 1.0 mi South 4.6 mph - N/A   Overcast
9:35 AM 19.4 °F 12.8 °F 12.2 °F 74% 29.98 in 1.2 mi South 4.6 mph - N/A   Overcast
9:55 AM 17.6 °F 12.3 °F 10.4 °F 73% 29.98 in 1.5 mi South 3.5 mph - N/A   Overcast
10:15 AM 19.4 °F 14.3 °F 12.2 °F 74% 29.98 in 7.0 mi SSE 3.5 mph - N/A   Overcast
10:35 AM 19.4 °F 12.8 °F 12.2 °F 74% 29.98 in 2.0 mi SSE 4.6 mph - N/A   Overcast
10:55 AM 19.4 °F 12.8 °F 12.2 °F 74% 29.98 in 1.2 mi SSE 4.6 mph - N/A   Overcast
11:15 AM 19.4 °F 14.3 °F 12.2 °F 74% 29.99 in 1.0 mi SSE 3.5 mph - N/A   Overcast
11:35 AM 19.4 °F 11.5 °F 12.2 °F 74% 29.99 in 1.0 mi East 5.8 mph - N/A   Overcast
11:55 AM 19.4 °F - 12.2 °F 74% 29.99 in 0.8 mi Calm Calm - N/A   Overcast
12:15 PM 19.4 °F - 12.2 °F 74% 29.99 in 1.2 mi Calm Calm - N/A   Overcast
12:35 PM 19.4 °F - 12.2 °F 74% 29.99 in 1.0 mi Calm Calm - N/A   Overcast
12:55 PM 19.4 °F - 12.2 °F 74% 29.98 in 0.8 mi Calm Calm - N/A   Overcast
1:15 PM 19.4 °F - 12.2 °F 74% 29.97 in 1.0 mi Calm Calm - N/A   Overcast
1:35 PM 23.0 °F - 15.8 °F 74% 29.96 in 3.0 mi Calm Calm - N/A   Overcast
1:55 PM 21.2 °F 16.4 °F 14.0 °F 74% 29.97 in 1.0 mi South 3.5 mph - N/A   Overcast
2:15 PM 21.2 °F - 12.2 °F 68% 29.96 in 0.8 mi Calm Calm - N/A   Overcast
2:35 PM 21.2 °F - 14.0 °F 74% 29.95 in 2.0 mi Calm Calm - N/A   Overcast
2:55 PM 21.2 °F - 14.0 °F 74% 29.94 in 9.0 mi Calm Calm - N/A   Scattered Clouds
3:15 PM 21.2 °F - 14.0 °F 74% 29.93 in 5.0 mi Calm Calm - N/A   Mostly Cloudy
3:35 PM 21.2 °F 14.9 °F 14.0 °F 74% 29.92 in 2.5 mi ESE 4.6 mph - N/A   Overcast
3:55 PM 21.2 °F 16.4 °F 14.0 °F 74% 29.92 in 1.5 mi ESE 3.5 mph - N/A   Overcast
4:15 PM 19.4 °F 11.5 °F 14.0 °F 80% 29.91 in 1.2 mi SE 5.8 mph - N/A   Overcast
4:35 PM 19.4 °F 12.8 °F 14.0 °F 80% 29.91 in 2.5 mi ESE 4.6 mph - N/A   Overcast
4:55 PM 19.4 °F 14.3 °F 14.0 °F 80% 29.91 in 1.2 mi East 3.5 mph - N/A   Overcast
5:15 PM 19.4 °F 14.3 °F 14.0 °F 80% 29.89 in 0.5 mi East 3.5 mph - N/A   Overcast
5:35 PM 19.4 °F - 14.0 °F 80% 29.88 in 1.0 mi Calm Calm - N/A   Overcast
5:55 PM 19.4 °F - 14.0 °F 80% 29.87 in 2.5 mi Calm Calm - N/A   Overcast
6:15 PM 19.4 °F - 14.0 °F 80% 29.86 in 4.0 mi Calm Calm - N/A   Mostly Cloudy
6:35 PM 19.4 °F - 12.2 °F 74% 29.86 in 4.0 mi Calm Calm - N/A   Overcast
6:55 PM 19.4 °F - 14.0 °F 80% 29.86 in 2.5 mi Calm Calm - N/A   Overcast
7:15 PM 19.4 °F - 14.0 °F 80% 29.85 in 5.0 mi Calm Calm - N/A   Overcast
7:35 PM 19.4 °F - 14.0 °F 80% 29.83 in 5.0 mi Calm Calm - N/A   Overcast
7:55 PM 19.4 °F - 15.8 °F 86% 29.83 in 9.0 mi Calm Calm - N/A   Overcast
8:15 PM 19.4 °F - 15.8 °F 86% 29.82 in 10.0 mi Calm Calm - N/A   Overcast
8:35 PM 19.4 °F - 15.8 °F 86% 29.81 in 10.0 mi Calm Calm - N/A   Overcast
8:55 PM 19.4 °F - 15.8 °F 86% 29.81 in 6.0 mi Calm Calm - N/A   Overcast
9:15 PM 21.2 °F - 15.8 °F 80% 29.80 in 10.0 mi Calm Calm - N/A   Overcast
9:35 PM 21.2 °F - 15.8 °F 80% 29.79 in 10.0 mi Calm Calm - N/A   Overcast
9:55 PM 21.2 °F 14.9 °F 15.8 °F 80% 29.78 in 10.0 mi NW 4.6 mph - N/A   Overcast
10:15 PM 21.2 °F 12.6 °F 15.8 °F 80% 29.78 in 9.0 mi NNW 6.9 mph - N/A   Overcast
10:35 PM 21.2 °F 13.6 °F 15.8 °F 80% 29.78 in 10.0 mi North 5.8 mph - N/A   Overcast
10:55 PM 21.2 °F - 15.8 °F 80% 29.78 in 5.0 mi Calm Calm - N/A   Overcast
11:15 PM 21.2 °F 13.6 °F 15.8 °F 80% 29.78 in 9.0 mi NW 5.8 mph - N/A   Overcast
11:35 PM 21.2 °F 13.6 °F 15.8 °F 80% 29.77 in 10.0 mi NNW 5.8 mph - N/A   Overcast
11:55 PM 23.0 °F 15.8 °F 17.6 °F 80% 29.75 in 10.0 mi NW 5.8 mph - N/A   Overcast